Overview Statistics Trail Chart Weather Telemetry Raw packets
 

This is the latest recevied weather packets stored in our database for station/object NL3D. If no packets are shown the sender has not sent any weather packets the latest 10 day(s).

<< 35 36 37 38 39 40 41 >>
Time Temp. Humidity Pressure Rain* Wind** Luminosity Snow
1777458855 4.44° C 56% 1020.7 hPa 0 mm - 0 W/m² -
1777458546 4.44° C 55% 1020.5 hPa 0 mm - 0 W/m² -
1777458242 4.44° C 55% 1020.5 hPa 0 mm - 0 W/m² -
1777457938 3.89° C 55% 1020.4 hPa 0 mm - 0 W/m² -
1777457634 4.44° C 55% 1020.2 hPa 0 mm - 0 W/m² -
1777457328 4.44° C 55% 1020.4 hPa 0 mm - 0 W/m² -
1777457024 4.44° C 55% 1020.4 hPa 0 mm - 0 W/m² -
1777456720 4.44° C 56% 1020.4 hPa 0 mm - 0 W/m² -
1777456419 4.44° C 56% 1020.1 hPa 0 mm - 0 W/m² -
1777456116 4.44° C 55% 1020.1 hPa 0 mm - 0 W/m² -
1777455812 4.44° C 56% 1020 hPa 0 mm - 0 W/m² -
1777455509 4.44° C 56% 1020.1 hPa 0 mm - 0 W/m² -
1777455206 3.89° C 59% 1020.1 hPa 0 mm - 0 W/m² -
1777454903 4.44° C 60% 1020.2 hPa 0 mm - 0 W/m² -
1777454599 4.44° C 58% 1020.1 hPa 0 mm - 0 W/m² -
1777454295 3.89° C 59% 1020.1 hPa 0 mm - 0 W/m² -
1777453992 3.89° C 60% 1020 hPa 0 mm - 0 W/m² -
1777453689 3.89° C 59% 1020.1 hPa 0 mm - 0 W/m² -
1777453386 4.44° C 59% 1020.1 hPa 0 mm - 0 W/m² -
1777453083 3.89° C 60% 1020 hPa 0 mm - 0 W/m² -
1777452780 3.33° C 62% 1019.9 hPa 0 mm - 0 W/m² -
1777452476 3.33° C 62% 1020 hPa 0 mm - 0 W/m² -
1777452172 3.89° C 62% 1019.9 hPa 0 mm - 0 W/m² -
1777451866 3.89° C 61% 1020.1 hPa 0 mm - 0 W/m² -
1777451564 3.89° C 61% 1020 hPa 0 mm - 0 W/m² -

* Rain latest hour (hover to see other rain measurements)
** Current wind speed in m/s (hover to see current wind gust speed)